SCP
0 0 0 0 0 0 0 0 0 0 0 0 0 0 0 0 0 0 0 0 0 0 0 0 0 0 0 0 0 0 0 0
0 0 0 0 0 0 0 0 0 0 0 0 0 0 0 0 0 0 0 0 0 0 0 0 0 0 0 0 0 0 0 0
0 0 0 0 0 0 0 0 0 0 0 0 0 0 0 0 0 0 0 0 0 0 0 0 0 0 0 0 0 0 0 0
0 0 0 0 0 0 0 0 0 0 0 0 0 0 0 0 0 0 0 0 0 0 0 0 0 0 0 0 0 0 0 0
0 0 0 0 0 0 0 0 0 0 0 0 0 0 0 0 0 0 0 0 0 0 0 0 0 0 0 0 0 0 0 0
0 0 0 0 -0 0 0 0 0 0 0 0 0 0 0 0 0 0 0 0 0 0 0 0 0 0 0 0 0 0 0 0
0 0 -0 -0 -0 -0 0 0 0 0 0 0 0 0 0 0 0 0 0 0 0 0 0 0 0 0 0 0 0 0 0 0
0 0 -0 -0 -0 -0 0 0 0 0 0 0 0 0 0 0 0 0 0 0 0 0 0 0 0 0 0 0 0 0 0 0
0 0 0 0 -0 -0 -0 -0 0 0 0 0 0 0 0 0 0 0 0 0 0 0 0 0 0 0 0 0 0 0 0 0
0 0 0 0 -0 0 -0 -0 -0 0 0 0 0 0 0 0 0 0 0 0 0 0 0 0 0 0 0 0 0 0 0 0
0 0 0 0 0 0 0 -0 -0 -0 0 0 0 0 0 0 0 0 0 0 0 0 0 0 0 0 0 0 0 0 0 0
0 0 0 0 0 0 0 0 0 0 0 -0 -0 -0 -0 -0 -0 -0 0 0 0 0 0 0 0 0 0 0 0 0 0 0
0 0 0 0 0 -0 -0 0 0 0 -0 0 0 0 0 0 -0 -0 -0 0 0 0 0 0 0 0 0 0 0 0 0 0
0 0 0 0 0 0 0 0 0 -0 0 0 0 0 -0 0 -0 -0 -0 0 0 0 0 0 0 0 0 0 0 0 0 0
0 0 0 0 0 0 0 0 -0 -0 -0 -0 -0 -0 -0 -0 -0 -0 -0 -0 -0 -0 0 0 0 0 0 0 0 0 0 0
0 0 0 0 0 0 0 0 0 0 0 0 0 0 0 0 -0 -0 -0 -0 -0 -0 -0 -0 -0 -0 -0 0 0 0 0 0
0 0 0 0 0 0 0 -0 -0 -0 -0 -0 0 0 0 -0 -0 -0 -0 0 0 0 0 0 0 0 0 0 0 0 0 0
0 0 0 0 -0 -0 -0 -0 -0 -0 -0 0 0 0 0 0 0 0 0 -0 0 0 0 0 0 0 0 0 0 0 0 0
0 0 0 -0 -0 -0 -0 -0 -0 -0 -0 0 -0 -0 0 0 0 0 0 0 0 0 0 0 0 0 0 0 0 0 0 0
0 -0 0 -0 -0 0 -0 -0 -0 -0 -0 -0 -0 0 0 0 0 0 0 0 0 0 0 0 0 0 0 0 0 0 0 0
Wind_Speed_500mb
54 55 54 50 56 52 46 47 50 49 70 77 79 73 69 79 87 89 78 84 76 77 75 75 78 83 87 94 100 107 108 108
46 44 42 40 42 41 39 34 41 50 55 72 76 70 64 70 71 76 70 74 71 75 74 70 78 72 75 83 97 105 107 107
45 35 28 24 24 19 16 16 25 42 50 56 56 58 56 59 61 63 63 61 53 71 69 73 69 78 87 82 81 83 98 108
68 56 40 26 20 11 6 5 13 32 39 50 46 50 52 63 63 69 67 64 58 63 63 63 62 68 78 84 95 94 93 98
72 71 56 42 42 33 27 24 28 20 27 33 35 34 47 48 59 58 57 66 73 68 66 65 69 65 71 75 79 83 96 101
66 68 63 57 56 59 52 47 44 36 30 22 18 16 17 19 39 38 36 44 42 33 44 39 51 58 62 63 76 86 87 93
55 56 59 55 53 57 59 54 48 47 44 39 29 22 25 16 7 6 3 10 19 10 29 16 31 37 38 44 49 59 73 69
43 41 43 44 50 51 54 49 50 50 44 37 34 28 25 18 15 8 10 12 13 15 18 24 27 28 30 32 37 39 41 42
31 31 34 38 41 42 43 45 46 45 47 41 39 33 29 24 21 21 18 18 20 22 24 26 31 38 46 46 44 44 41 41
26 28 31 34 38 40 40 42 44 48 47 42 37 39 33 36 35 34 30 26 25 27 28 30 36 41 47 51 52 55 52 52
20 24 30 35 37 41 45 47 50 47 45 41 41 39 40 41 40 39 38 37 33 33 35 36 36 38 39 42 44 46 46 45
16 22 29 32 35 41 44 51 49 44 43 42 42 39 39 40 39 39 39 38 39 40 39 38 38 38 37 38 42 44 46 46
10 16 22 27 32 38 43 43 40 40 40 41 40 40 39 41 44 45 46 48 51 52 52 52 49 47 43 38 34 35 42 45
3 9 16 22 28 32 37 34 33 32 35 35 34 35 37 39 43 47 50 54 57 59 59 59 58 55 51 48 44 41 39 38
3 4 9 15 22 28 30 31 30 29 30 30 30 33 35 38 42 46 50 52 55 57 58 58 60 63 63 59 54 50 46 43
11 4 4 11 17 23 26 28 27 26 26 26 28 31 34 38 42 45 48 51 54 57 60 62 64 63 59 57 56 55 51 47
16 11 3 6 12 17 22 25 26 23 25 28 29 31 33 36 38 42 47 50 52 54 55 54 55 56 58 53 49 46 42 39
19 17 9 3 6 12 18 20 21 21 23 25 27 30 32 34 36 38 41 44 46 48 50 53 53 53 54 53 51 44 38 38
22 21 16 8 3 5 11 13 14 16 18 21 24 27 31 33 34 34 35 37 37 39 41 44 46 47 46 44 39 44 49 46
26 24 21 13 9 5 5 5 7 11 16 19 23 25 27 28 30 31 33 36 36 36 37 39 43 43 44 46 49 49 50 48
Wind_Direction_500mb
328 323 313 307 294 286 279 264 257 265 243 245 255 256 253 242 247 247 253 254 256 259 252 253 251 253 253 255 258 258 261 262
339 323 320 312 304 290 285 262 254 263 251 245 249 253 256 248 253 250 252 259 255 257 256 258 250 252 257 260 258 257 261 261
6 357 349 331 309 303 290 255 252 254 237 239 244 256 264 258 259 260 252 255 259 264 261 270 269 257 255 256 260 261 260 262
26 27 24 27 24 19 71 178 171 224 219 223 230 238 247 239 245 246 250 252 263 263 261 268 262 268 272 266 265 259 270 267
28 28 36 47 53 63 80 95 112 157 200 206 214 230 231 225 231 241 242 246 240 246 247 250 257 259 262 267 271 281 280 271
28 29 27 37 52 63 71 80 89 111 125 131 136 158 150 202 231 234 244 237 240 231 241 257 256 259 248 254 258 258 262 267
34 35 30 29 37 57 61 63 73 79 89 93 93 89 91 89 96 250 254 253 270 312 243 267 260 262 272 272 275 267 266 267
30 31 36 35 42 45 57 59 63 66 67 69 72 67 65 70 69 55 14 14 352 344 337 319 315 312 311 311 302 301 302 294
32 33 39 45 57 58 59 66 67 74 66 57 64 56 53 51 42 35 13 356 345 330 322 309 306 302 293 290 290 290 291 296
34 36 45 47 51 62 70 71 67 61 68 73 65 64 60 58 53 49 41 30 17 5 354 341 332 321 313 306 300 296 297 297
38 39 45 49 53 55 58 60 61 61 62 63 63 63 59 58 56 54 52 49 43 33 23 13 5 352 341 329 323 315 310 304
31 39 44 47 49 54 54 53 53 55 57 56 55 53 54 56 57 56 56 54 50 43 37 29 21 11 359 349 343 337 331 329
29 39 48 50 51 54 54 52 49 49 52 52 51 50 51 53 52 49 45 42 42 40 37 31 26 20 14 6 357 346 340 338
28 38 44 49 53 52 57 55 47 45 47 49 49 51 50 50 47 44 40 36 34 31 27 23 21 21 20 16 7 360 351 340
252 26 35 46 52 50 50 48 44 47 50 50 48 49 48 46 45 41 38 35 32 30 27 24 21 18 15 13 8 3 356 346
218 244 7 32 43 43 41 41 41 45 53 58 57 51 45 41 39 37 35 33 30 27 22 20 21 21 16 10 7 3 358 351
216 224 252 19 36 38 36 39 45 44 49 51 49 50 52 48 43 38 33 29 26 21 19 21 22 16 14 13 10 3 360 353
221 221 227 296 8 28 26 36 46 46 47 46 45 44 42 41 43 41 34 28 26 20 16 15 18 16 13 13 12 10 6 14
228 225 221 229 299 12 16 29 46 45 39 38 36 36 36 38 38 36 34 33 29 21 16 13 15 12 9 10 2 12 19 20
227 224 221 226 249 276 342 21 45 35 26 26 28 30 33 35 37 37 35 33 30 26 20 19 18 10 8 9 12 16 19 23
Wind_Speed_850mb
54 55 54 50 56 52 46 47 50 49 70 77 79 73 69 79 87 89 78 84 76 77 75 75 78 83 87 94 100 107 108 108
46 44 42 40 42 41 39 34 41 50 55 72 76 70 64 70 71 76 70 74 71 75 74 70 78 72 75 83 97 105 107 107
45 35 28 24 24 19 16 16 25 42 50 56 56 58 56 59 61 63 63 61 53 71 69 73 69 78 87 82 81 83 98 108
68 56 40 26 20 11 6 5 13 32 39 50 46 50 52 63 63 69 67 64 58 63 63 63 62 68 78 84 95 94 93 98
72 71 56 42 42 33 27 24 28 20 27 33 35 34 47 48 59 58 57 66 73 68 66 65 69 65 71 75 79 83 96 101
66 68 63 57 56 59 52 47 44 36 30 22 18 16 17 19 39 38 36 44 42 33 44 39 51 58 62 63 76 86 87 93
55 56 59 55 53 57 59 54 48 47 44 39 29 22 25 16 7 6 3 10 19 10 29 16 31 37 38 44 49 59 73 69
43 41 43 44 50 51 54 49 50 50 44 37 34 28 25 18 15 8 10 12 13 15 18 24 27 28 30 32 37 39 41 42
31 31 34 38 41 42 43 45 46 45 47 41 39 33 29 24 21 21 18 18 20 22 24 26 31 38 46 46 44 44 41 41
26 28 31 34 38 40 40 42 44 48 47 42 37 39 33 36 35 34 30 26 25 27 28 30 36 41 47 51 52 55 52 52
20 24 30 35 37 41 45 47 50 47 45 41 41 39 40 41 40 39 38 37 33 33 35 36 36 38 39 42 44 46 46 45
16 22 29 32 35 41 44 51 49 44 43 42 42 39 39 40 39 39 39 38 39 40 39 38 38 38 37 38 42 44 46 46
10 16 22 27 32 38 43 43 40 40 40 41 40 40 39 41 44 45 46 48 51 52 52 52 49 47 43 38 34 35 42 45
3 9 16 22 28 32 37 34 33 32 35 35 34 35 37 39 43 47 50 54 57 59 59 59 58 55 51 48 44 41 39 38
3 4 9 15 22 28 30 31 30 29 30 30 30 33 35 38 42 46 50 52 55 57 58 58 60 63 63 59 54 50 46 43
11 4 4 11 17 23 26 28 27 26 26 26 28 31 34 38 42 45 48 51 54 57 60 62 64 63 59 57 56 55 51 47
16 11 3 6 12 17 22 25 26 23 25 28 29 31 33 36 38 42 47 50 52 54 55 54 55 56 58 53 49 46 42 39
19 17 9 3 6 12 18 20 21 21 23 25 27 30 32 34 36 38 41 44 46 48 50 53 53 53 54 53 51 44 38 38
22 21 16 8 3 5 11 13 14 16 18 21 24 27 31 33 34 34 35 37 37 39 41 44 46 47 46 44 39 44 49 46
26 24 21 13 9 5 5 5 7 11 16 19 23 25 27 28 30 31 33 36 36 36 37 39 43 43 44 46 49 49 50 48
Wind_Direction_850mb
328 323 313 307 294 286 279 264 257 265 243 245 255 256 253 242 247 247 253 254 256 259 252 253 251 253 253 255 258 258 261 262
339 323 320 312 304 290 285 262 254 263 251 245 249 253 256 248 253 250 252 259 255 257 256 258 250 252 257 260 258 257 261 261
6 357 349 331 309 303 290 255 252 254 237 239 244 256 264 258 259 260 252 255 259 264 261 270 269 257 255 256 260 261 260 262
26 27 24 27 24 19 71 178 171 224 219 223 230 238 247 239 245 246 250 252 263 263 261 268 262 268 272 266 265 259 270 267
28 28 36 47 53 63 80 95 112 157 200 206 214 230 231 225 231 241 242 246 240 246 247 250 257 259 262 267 271 281 280 271
28 29 27 37 52 63 71 80 89 111 125 131 136 158 150 202 231 234 244 237 240 231 241 257 256 259 248 254 258 258 262 267
34 35 30 29 37 57 61 63 73 79 89 93 93 89 91 89 96 250 254 253 270 312 243 267 260 262 272 272 275 267 266 267
30 31 36 35 42 45 57 59 63 66 67 69 72 67 65 70 69 55 14 14 352 344 337 319 315 312 311 311 302 301 302 294
32 33 39 45 57 58 59 66 67 74 66 57 64 56 53 51 42 35 13 356 345 330 322 309 306 302 293 290 290 290 291 296
34 36 45 47 51 62 70 71 67 61 68 73 65 64 60 58 53 49 41 30 17 5 354 341 332 321 313 306 300 296 297 297
38 39 45 49 53 55 58 60 61 61 62 63 63 63 59 58 56 54 52 49 43 33 23 13 5 352 341 329 323 315 310 304
31 39 44 47 49 54 54 53 53 55 57 56 55 53 54 56 57 56 56 54 50 43 37 29 21 11 359 349 343 337 331 329
29 39 48 50 51 54 54 52 49 49 52 52 51 50 51 53 52 49 45 42 42 40 37 31 26 20 14 6 357 346 340 338
28 38 44 49 53 52 57 55 47 45 47 49 49 51 50 50 47 44 40 36 34 31 27 23 21 21 20 16 7 360 351 340
252 26 35 46 52 50 50 48 44 47 50 50 48 49 48 46 45 41 38 35 32 30 27 24 21 18 15 13 8 3 356 346
218 244 7 32 43 43 41 41 41 45 53 58 57 51 45 41 39 37 35 33 30 27 22 20 21 21 16 10 7 3 358 351
216 224 252 19 36 38 36 39 45 44 49 51 49 50 52 48 43 38 33 29 26 21 19 21 22 16 14 13 10 3 360 353
221 221 227 296 8 28 26 36 46 46 47 46 45 44 42 41 43 41 34 28 26 20 16 15 18 16 13 13 12 10 6 14
228 225 221 229 299 12 16 29 46 45 39 38 36 36 36 38 38 36 34 33 29 21 16 13 15 12 9 10 2 12 19 20
227 224 221 226 249 276 342 21 45 35 26 26 28 30 33 35 37 37 35 33 30 26 20 19 18 10 8 9 12 16 19 23